TimeEST,TemperatureF,Dew PointF,Humidity,Sea Level PressureIn,VisibilityMPH,Wind Direction,Wind SpeedMPH,Gust SpeedMPH,PrecipitationIn,Events,Conditions,WindDirDegrees,DateUTC
12:53 AM,57.9,52.0,81,30.05,6.0,Calm,Calm,-,N/A,,Haze,0,2013-02-06 05:53:00
1:53 AM,57.0,52.0,83,30.05,10.0,Calm,Calm,-,N/A,,Overcast,0,2013-02-06 06:53:00
2:53 AM,57.9,53.1,84,30.06,10.0,Calm,Calm,-,N/A,,Overcast,0,2013-02-06 07:53:00
3:53 AM,57.0,53.1,87,30.06,10.0,Calm,Calm,-,N/A,,Overcast,0,2013-02-06 08:53:00
4:53 AM,55.9,53.1,90,30.07,9.0,Calm,Calm,-,N/A,,Overcast,0,2013-02-06 09:53:00
5:53 AM,55.9,52.0,87,30.08,9.0,Calm,Calm,-,N/A,,Overcast,0,2013-02-06 10:53:00
6:17 AM,55.4,51.8,88,30.10,8.0,Calm,Calm,-,N/A,,Overcast,0,2013-02-06 11:17:00
6:53 AM,57.0,53.1,87,30.11,7.0,Calm,Calm,-,N/A,,Overcast,0,2013-02-06 11:53:00
7:53 AM,57.9,53.1,84,30.13,5.0,Calm,Calm,-,N/A,,Haze,0,2013-02-06 12:53:00
8:53 AM,60.1,53.1,78,30.14,9.0,Calm,Calm,-,N/A,,Overcast,0,2013-02-06 13:53:00
9:43 AM,64.4,53.6,68,30.16,10.0,North,5.8,-,N/A,,Mostly Cloudy,360,2013-02-06 14:43:00
9:53 AM,63.0,53.1,70,30.16,10.0,North,3.5,-,N/A,,Overcast,350,2013-02-06 14:53:00
10:51 AM,64.4,53.6,68,30.17,10.0,North,3.5,-,N/A,,Overcast,360,2013-02-06 15:51:00
10:53 AM,64.9,53.1,65,30.17,10.0,NNE,3.5,-,N/A,,Overcast,20,2013-02-06 15:53:00
11:36 AM,66.2,53.6,64,30.17,8.0,Calm,Calm,-,N/A,,Overcast,0,2013-02-06 16:36:00
11:53 AM,66.9,52.0,59,30.16,10.0,Variable,3.5,-,N/A,,Overcast,0,2013-02-06 16:53:00
12:17 PM,69.8,53.6,56,30.15,10.0,Variable,3.5,-,N/A,,Overcast,0,2013-02-06 17:17:00
12:53 PM,71.1,53.1,53,30.14,10.0,ENE,4.6,-,N/A,,Clear,60,2013-02-06 17:53:00
1:53 PM,71.1,52.0,51,30.11,10.0,Calm,Calm,-,N/A,,Mostly Cloudy,0,2013-02-06 18:53:00
2:53 PM,71.1,52.0,51,30.10,10.0,Calm,Calm,-,N/A,,Overcast,0,2013-02-06 19:53:00
3:53 PM,71.1,52.0,51,30.10,10.0,Variable,3.5,-,N/A,,Overcast,0,2013-02-06 20:53:00
4:53 PM,70.0,52.0,53,30.09,10.0,SE,4.6,-,N/A,,Overcast,140,2013-02-06 21:53:00
5:53 PM,68.0,53.1,59,30.10,10.0,Calm,Calm,-,N/A,,Clear,0,2013-02-06 22:53:00
6:53 PM,55.9,51.1,84,30.10,10.0,Calm,Calm,-,N/A,,Clear,0,2013-02-06 23:53:00
7:53 PM,54.0,50.0,86,30.10,10.0,Calm,Calm,-,N/A,,Clear,0,2013-02-07 00:53:00
8:53 PM,53.1,50.0,89,30.12,8.0,Calm,Calm,-,N/A,,Clear,0,2013-02-07 01:53:00
9:53 PM,50.0,48.0,93,30.14,7.0,Calm,Calm,-,N/A,,Clear,0,2013-02-07 02:53:00
10:53 PM,51.1,48.0,89,30.14,3.0,Calm,Calm,-,N/A,,Clear,0,2013-02-07 03:53:00
11:31 PM,48.2,46.4,93,30.13,2.5,Calm,Calm,-,N/A,,Clear,0,2013-02-07 04:31:00
11:41 PM,48.2,46.4,93,30.12,3.0,Calm,Calm,-,N/A,,Clear,0,2013-02-07 04:41:00
11:53 PM,48.9,46.9,93,30.12,2.5,Calm,Calm,-,N/A,,Clear,0,2013-02-07 04:53:00